Latest Weather Observations for Mawson*
Issued at 9:51 pm EST Saturday 9 May 2026 (issued every 10 minutes, with the page automatically refreshed every 10 minutes)
| Station Details | ID: 300001 | Name: MAWSON | Lat: -67.60 | Lon: 62.88 | Height: 9.9 m |
| Date/Time EST |
Temp °C |
App Temp °C |
Dew Point °C |
Rel Hum % |
Delta-T °C |
Wind | Press QNH hPa |
Press MSL hPa |
Rain since 9am mm |
|||||
|---|---|---|---|---|---|---|---|---|---|---|---|---|---|---|
| Dir | Spd km/h |
Gust km/h |
Spd kts |
Gust kts |
||||||||||
| 09/09:30pm | -15.0 | -27.0 | -22.4 | 53 | - | S | 44 | 54 | 24 | 29 | 999.4 | 999.6 | - | |
| 09/09:00pm | -11.9 | -23.9 | -22.7 | 40 | - | SSE | 44 | 50 | 24 | 27 | 998.9 | 999.1 | - | |
| 09/08:30pm | -11.8 | -24.2 | -22.6 | 40 | - | SSE | 46 | 54 | 25 | 29 | 998.6 | 998.8 | - | |
| 09/08:00pm | -13.5 | -24.5 | -21.4 | 51 | - | SSE | 39 | 48 | 21 | 26 | 998.5 | 998.7 | - | |
| 09/07:30pm | -13.5 | -24.6 | -22.1 | 48 | - | S | 39 | 46 | 21 | 25 | 997.9 | 998.1 | - | |
| 09/07:25pm | -13.3 | -23.6 | -22.2 | 47 | - | S | 35 | 46 | 19 | 25 | 997.8 | 998.0 | - | |
| 09/07:02pm | -11.1 | -22.2 | -23.2 | 36 | - | SE | 39 | 57 | 21 | 31 | 997.8 | 998.0 | - | |
| 09/07:00pm | -10.9 | -22.4 | -23.0 | 36 | - | SE | 41 | 57 | 22 | 31 | 997.8 | 998.0 | - | |
| 09/06:30pm | -13.2 | -24.3 | -22.3 | 46 | - | SSE | 39 | 50 | 21 | 27 | 997.1 | 997.3 | - | |
| 09/06:00pm | -12.0 | -24.8 | -23.4 | 38 | - | SE | 48 | 59 | 26 | 32 | 996.7 | 996.9 | - | |
| 09/05:30pm | -14.2 | -26.0 | -22.5 | 49 | - | S | 43 | 54 | 23 | 29 | 996.2 | 996.4 | - | |
| 09/05:00pm | -14.0 | -24.4 | -23.8 | 43 | - | SSE | 35 | 46 | 19 | 25 | 996.0 | 996.2 | - | |
| 09/04:45pm | -11.4 | -23.8 | -23.4 | 36 | - | SSE | 46 | 59 | 25 | 32 | 995.9 | 996.1 | - | |
| 09/04:30pm | -14.4 | -26.3 | -23.0 | 48 | - | S | 43 | 52 | 23 | 28 | 995.7 | 995.9 | - | |
| 09/04:00pm | -14.1 | -22.4 | -23.9 | 43 | - | S | 24 | 43 | 13 | 23 | 995.8 | 996.0 | - | |
| 09/03:30pm | -14.7 | -24.1 | -23.7 | 46 | - | S | 30 | 41 | 16 | 22 | 995.7 | 995.9 | - | |
| 09/03:27pm | -14.7 | -22.6 | -25.0 | 41 | - | S | 22 | 41 | 12 | 22 | 995.7 | 995.9 | - | |
| 09/03:00pm | -13.3 | -19.1 | -23.7 | 41 | - | S | 11 | 20 | 6 | 11 | 995.6 | 995.8 | - | |
| 09/02:30pm | -14.8 | -19.8 | -23.6 | 47 | - | ESE | 7 | 17 | 4 | 9 | 995.3 | 995.5 | - | |
| 09/02:00pm | -13.6 | -19.4 | -23.5 | 43 | - | ESE | 11 | 24 | 6 | 13 | 995.2 | 995.4 | - | |
| 09/01:30pm | -12.8 | -20.7 | -23.8 | 39 | - | S | 22 | 35 | 12 | 19 | 994.5 | 994.7 | - | |
| 09/01:00pm | -13.7 | -24.8 | -23.8 | 42 | - | SSW | 39 | 54 | 21 | 29 | 993.8 | 994.0 | - | |
| 09/12:36pm | -12.3 | -21.3 | -23.4 | 39 | - | S | 28 | 46 | 15 | 25 | 993.8 | 994.0 | - | |
| 09/12:30pm | -13.7 | -23.1 | -23.8 | 42 | - | S | 30 | 43 | 16 | 23 | 993.8 | 994.0 | - | |
| 09/12:00pm | -13.5 | -22.5 | -24.2 | 40 | - | SSW | 28 | 39 | 15 | 21 | 993.5 | 993.7 | - | |
| 09/11:47am | -13.9 | -21.8 | -23.7 | 43 | - | SSW | 22 | 44 | 12 | 24 | 993.5 | 993.7 | - | |
| 09/11:30am | -14.6 | -19.6 | -23.6 | 46 | - | SE | 7 | 11 | 4 | 6 | 993.5 | 993.7 | - | |
| 09/11:00am | -14.3 | -19.7 | -23.1 | 47 | - | SSE | 9 | 13 | 5 | 7 | 993.1 | 993.3 | - | |
| 09/10:30am | -15.2 | -20.2 | -22.6 | 53 | - | ENE | 7 | 13 | 4 | 7 | 993.0 | 993.2 | - | |
| 09/10:00am | -13.6 | -20.9 | -23.5 | 43 | - | SSW | 19 | 35 | 10 | 19 | 992.5 | 992.7 | - | |
| 09/09:30am | -14.6 | -20.7 | -22.9 | 49 | - | SE | 13 | 26 | 7 | 14 | 992.6 | 992.8 | - | |
| 09/09:00am | -12.8 | -21.8 | -22.7 | 43 | - | NNW | 28 | 35 | 15 | 19 | 991.8 | 992.0 | - | |
| 09/08:30am | -12.0 | -19.5 | -22.8 | 40 | - | NNW | 20 | 30 | 11 | 16 | 991.5 | 991.7 | - | |
| 09/08:00am | -9.7 | -18.3 | -21.9 | 36 | - | NW | 26 | 70 | 14 | 38 | 990.9 | 991.1 | - | |
| 09/07:59am | -10.9 | -19.5 | -22.4 | 38 | - | NW | 26 | 70 | 14 | 38 | 990.7 | 990.9 | - | |
| 09/07:30am | -12.2 | -22.2 | -24.2 | 36 | - | W | 33 | 52 | 18 | 28 | 990.6 | 990.8 | - | |
| 09/07:29am | -12.1 | -22.1 | -24.1 | 36 | - | W | 33 | 52 | 18 | 28 | 990.6 | 990.8 | - | |
| 09/07:19am | -12.7 | -19.6 | -23.4 | 40 | - | W | 17 | 44 | 9 | 24 | 990.1 | 990.3 | - | |
| 09/07:00am | -12.8 | -18.6 | -24.1 | 38 | - | NW | 11 | 22 | 6 | 12 | 990.4 | 990.6 | - | |
| 09/06:30am | -13.2 | -19.4 | -23.4 | 42 | - | SSW | 13 | 24 | 7 | 13 | 990.1 | 990.3 | - | |
| 09/06:00am | -13.2 | -20.5 | -23.9 | 40 | - | NW | 19 | 33 | 10 | 18 | 989.7 | 989.9 | - | |
| 09/05:30am | -13.0 | -19.9 | -23.7 | 40 | - | NE | 17 | 33 | 9 | 18 | 989.4 | 989.6 | - | |
| 09/05:00am | -12.8 | -19.3 | -23.0 | 42 | - | SE | 15 | 35 | 8 | 19 | 989.3 | 989.5 | - | |
| 09/04:30am | -13.1 | -22.5 | -22.7 | 44 | - | NNW | 30 | 43 | 16 | 23 | 988.9 | 989.1 | - | |
| 09/04:17am | -13.9 | -21.2 | -23.7 | 43 | - | NNE | 19 | 50 | 10 | 27 | 989.0 | 989.2 | - | |
| 09/04:00am | -12.7 | -18.9 | -23.4 | 40 | - | WSW | 13 | 32 | 7 | 17 | 988.5 | 988.7 | - | |
| 09/03:30am | -13.9 | -19.7 | -22.7 | 47 | - | WSW | 11 | 35 | 6 | 19 | 988.6 | 988.8 | - | |
| 09/03:00am | -14.7 | -21.3 | -24.0 | 45 | - | WSW | 15 | 24 | 8 | 13 | 988.5 | 988.7 | - | |
| 09/02:36am | -14.3 | -21.8 | -23.6 | 45 | - | WNW | 20 | 41 | 11 | 22 | 988.4 | 988.6 | - | |
| 09/02:30am | -14.1 | -21.6 | -23.4 | 45 | - | NW | 20 | 39 | 11 | 21 | 988.4 | 988.6 | - | |
| 09/02:02am | -16.2 | -24.8 | -21.4 | 64 | - | SW | 26 | 61 | 14 | 33 | 988.3 | 988.5 | - | |
| 09/02:00am | -16.6 | -25.2 | -23.3 | 56 | - | WSW | 26 | 57 | 14 | 31 | 988.5 | 988.7 | - | |
| 09/01:44am | -15.3 | -25.7 | -24.5 | 45 | - | WSW | 35 | 56 | 19 | 30 | 988.4 | 988.6 | - | |
| 09/01:42am | -15.1 | -25.5 | -24.8 | 43 | - | WSW | 35 | 56 | 19 | 30 | 988.3 | 988.5 | - | |
| 09/01:34am | -14.5 | -23.2 | -25.4 | 39 | - | WSW | 26 | 50 | 14 | 27 | 988.4 | 988.6 | - | |
| 09/01:33am | -14.9 | -23.2 | -26.0 | 38 | - | WSW | 24 | 50 | 13 | 27 | 988.2 | 988.4 | - | |
| 09/01:30am | -14.7 | -22.6 | -26.4 | 36 | - | SW | 22 | 41 | 12 | 22 | 988.3 | 988.5 | - | |
| 09/01:00am | -13.3 | -20.8 | -23.2 | 43 | - | WSW | 20 | 54 | 11 | 29 | 988.3 | 988.5 | - | |
| 09/12:30am | -19.0 | -27.3 | -26.3 | 52 | - | WSW | 24 | 35 | 13 | 19 | 988.9 | 989.1 | - | |
| 09/12:10am | -17.7 | -28.9 | -25.3 | 51 | - | S | 39 | 59 | 21 | 32 | 988.7 | 988.9 | - | |
| 09/12:05am | -16.3 | -27.8 | -23.4 | 54 | - | S | 41 | 59 | 22 | 32 | 988.5 | 988.7 | - | |
| 09/12:01am | -15.9 | -25.7 | -23.2 | 53 | - | SSW | 32 | 59 | 17 | 32 | 988.6 | 988.8 | - | |
| 09/12:00am | -15.9 | -25.3 | -23.2 | 53 | - | SSW | 30 | 48 | 16 | 26 | 988.8 | 989.0 | - | |
| Date/Time EST |
Temp °C |
App Temp °C |
Dew Point °C |
Rel Hum % |
Delta-T °C |
Wind | Press QNH hPa |
Press MSL hPa |
Rain since 9am mm |
|||||
|---|---|---|---|---|---|---|---|---|---|---|---|---|---|---|
| Dir | Spd km/h |
Gust km/h |
Spd kts |
Gust kts |
||||||||||
| 08/11:30pm | -16.8 | -25.1 | -24.7 | 50 | - | SW | 24 | 43 | 13 | 23 | 988.9 | 989.1 | - | |
| 08/11:00pm | -16.8 | -25.1 | -25.4 | 47 | - | WSW | 24 | 35 | 13 | 19 | 988.8 | 989.0 | - | |
| 08/10:30pm | -20.7 | -27.0 | -27.7 | 53 | - | WNW | 13 | 22 | 7 | 12 | 989.6 | 989.8 | - | |
| 08/10:00pm | -20.1 | -27.5 | -27.6 | 51 | - | WSW | 19 | 32 | 10 | 17 | 989.4 | 989.6 | - | |
| 08/09:30pm | -17.6 | -27.0 | -25.7 | 49 | - | SSW | 30 | 43 | 16 | 23 | 989.5 | 989.7 | - | |
| 08/09:00pm | -18.7 | -28.2 | -26.7 | 49 | - | SSW | 30 | 44 | 16 | 24 | 988.9 | 989.1 | - | |
| 08/08:58pm | -18.5 | -27.6 | -26.8 | 48 | - | SSW | 28 | 41 | 15 | 22 | 988.9 | 989.1 | - | |
| 08/08:30pm | -20.0 | -24.9 | -28.1 | 48 | - | NE | 6 | 9 | 3 | 5 | 989.5 | 989.7 | - | |
| 08/08:00pm | -20.3 | -27.0 | -28.4 | 48 | - | W | 15 | 19 | 8 | 10 | 989.6 | 989.8 | - | |
| 08/07:30pm | -20.4 | -25.9 | -28.5 | 48 | - | SSW | 9 | 20 | 5 | 11 | 989.8 | 990.0 | - | |
| 08/07:00pm | -20.0 | -26.7 | -29.3 | 43 | - | WSW | 15 | 20 | 8 | 11 | 989.9 | 990.1 | - | |
| 08/06:30pm | -20.7 | -27.4 | -29.2 | 46 | - | WSW | 15 | 20 | 8 | 11 | 989.8 | 990.0 | - | |
| 08/06:00pm | -20.5 | -27.6 | -29.3 | 45 | - | WSW | 17 | 26 | 9 | 14 | 989.3 | 989.5 | - | |
| 08/05:38pm | -20.5 | -29.6 | -29.1 | 46 | - | WSW | 28 | 46 | 15 | 25 | 989.4 | 989.6 | - | |
| 08/05:30pm | -20.6 | -30.1 | -29.1 | 46 | - | SW | 30 | 44 | 16 | 24 | 989.5 | 989.7 | - | |
| 08/05:02pm | -19.8 | -29.7 | -27.3 | 51 | - | WSW | 32 | 52 | 17 | 28 | 988.9 | 989.1 | - | |
| 08/05:00pm | -19.8 | -29.3 | -27.3 | 51 | - | WSW | 30 | 44 | 16 | 24 | 989.0 | 989.2 | - | |
| 08/04:59pm | -19.9 | -29.0 | -27.6 | 50 | - | SW | 28 | 44 | 15 | 24 | 988.9 | 989.1 | - | |
| 08/04:30pm | -19.6 | -27.9 | -26.5 | 54 | - | N | 24 | 32 | 13 | 17 | 988.9 | 989.1 | - | |
| 08/04:00pm | -20.6 | -27.6 | -27.8 | 52 | - | NNE | 17 | 39 | 9 | 21 | 989.0 | 989.2 | - | |
| 08/03:47pm | -19.5 | -31.4 | -25.6 | 58 | - | SSE | 43 | 61 | 23 | 33 | 988.3 | 988.5 | - | |
| 08/03:34pm | -19.7 | -32.6 | -25.4 | 60 | - | S | 48 | 65 | 26 | 35 | 987.4 | 987.6 | - | |
| 08/03:33pm | -19.7 | -32.6 | -25.6 | 59 | - | S | 48 | 65 | 26 | 35 | 987.6 | 987.8 | - | |
| 08/03:30pm | -20.1 | -34.5 | -26.2 | 58 | - | S | 56 | 69 | 30 | 37 | 987.5 | 987.7 | - | |
| 08/03:12pm | -20.1 | -35.1 | -25.6 | 61 | - | S | 59 | 82 | 32 | 44 | 987.3 | 987.5 | - | |
| 08/03:00pm | -20.1 | -34.1 | -25.8 | 60 | - | S | 54 | 72 | 29 | 39 | 987.2 | 987.4 | - | |
| 08/02:53pm | -20.2 | -31.0 | -26.1 | 59 | - | SW | 37 | 63 | 20 | 34 | 987.7 | 987.9 | - | |
| 08/02:47pm | -21.1 | -31.0 | -27.9 | 54 | - | SW | 32 | 50 | 17 | 27 | 988.4 | 988.6 | - | |
| 08/02:34pm | -20.9 | -33.8 | -27.0 | 58 | - | SSW | 48 | 65 | 26 | 35 | 988.3 | 988.5 | - | |
| 08/02:30pm | -20.5 | -34.5 | -26.6 | 58 | - | S | 54 | 65 | 29 | 35 | 987.7 | 987.9 | - | |
| 08/02:16pm | -20.8 | -36.5 | -26.3 | 61 | - | S | 63 | 82 | 34 | 44 | 987.4 | 987.6 | - | |
| 08/02:00pm | -21.0 | -37.1 | -26.2 | 63 | - | S | 65 | 76 | 35 | 41 | 987.3 | 987.5 | - | |
| 08/01:30pm | -20.2 | -35.9 | -26.1 | 59 | - | S | 63 | 72 | 34 | 39 | 986.8 | 987.0 | - | |
| 08/01:00pm | -20.6 | -38.0 | -25.9 | 62 | - | S | 72 | 89 | 39 | 48 | 986.1 | 986.3 | - | |
| 08/12:30pm | -21.2 | -38.1 | -26.3 | 63 | - | S | 69 | 80 | 37 | 43 | 986.1 | 986.3 | - | |
| 08/12:17pm | -21.1 | -38.2 | -26.1 | 64 | - | S | 70 | 89 | 38 | 48 | 985.8 | 986.0 | - | |
| 08/12:00pm | -20.9 | -38.3 | -26.2 | 62 | - | S | 72 | 87 | 39 | 47 | 986.2 | 986.4 | - | |
| 08/11:30am | -21.1 | -38.0 | -26.6 | 61 | - | S | 69 | 80 | 37 | 43 | 986.3 | 986.5 | - | |
| 08/11:00am | -21.1 | -37.6 | -26.4 | 62 | - | S | 67 | 87 | 36 | 47 | 986.0 | 986.2 | - | |
| 08/10:47am | -21.2 | -36.6 | -26.3 | 63 | - | S | 61 | 80 | 33 | 43 | 986.2 | 986.4 | - | |
| 08/10:41am | -21.3 | -33.2 | -27.0 | 60 | - | SE | 43 | 72 | 23 | 39 | 986.8 | 987.0 | - | |
| 08/10:40am | -21.3 | -33.2 | -27.1 | 59 | - | SE | 43 | 61 | 23 | 33 | 987.0 | 987.2 | - | |
| 08/10:39am | -21.1 | -33.1 | -27.3 | 57 | - | SE | 43 | 59 | 23 | 32 | 987.1 | 987.3 | - | |
| 08/10:35am | -20.2 | -31.8 | -26.9 | 55 | - | SE | 41 | 59 | 22 | 32 | 987.9 | 988.1 | - | |
| 08/10:30am | -21.3 | -30.0 | -27.1 | 59 | - | SE | 26 | 56 | 14 | 30 | 987.5 | 987.7 | - | |
| 08/10:28am | -21.2 | -28.8 | -27.8 | 55 | - | SE | 20 | 46 | 11 | 25 | 987.9 | 988.1 | - | |
| 08/10:00am | -21.6 | -30.3 | -27.4 | 59 | - | S | 26 | 46 | 14 | 25 | 988.0 | 988.2 | - | |
| 08/09:30am | -21.3 | -32.5 | -27.5 | 57 | - | SSE | 39 | 59 | 21 | 32 | 987.4 | 987.6 | - | |
| 08/09:01am | -21.4 | -33.0 | -27.6 | 57 | - | S | 41 | 59 | 22 | 32 | 987.4 | 987.6 | - | |
| 08/09:00am | -21.5 | -32.7 | -27.7 | 57 | - | S | 39 | 54 | 21 | 29 | 987.4 | 987.6 | - | |
| 08/08:30am | -21.1 | -33.1 | -28.1 | 53 | - | S | 43 | 54 | 23 | 29 | 987.8 | 988.0 | - | |
| 08/08:06am | -20.8 | -28.4 | -29.1 | 47 | - | SSW | 20 | 46 | 11 | 25 | 987.9 | 988.1 | - | |
| 08/08:00am | -20.8 | -27.9 | -29.3 | 46 | - | WSW | 17 | 24 | 9 | 13 | 988.2 | 988.4 | - | |
| 08/07:30am | -21.1 | -31.6 | -29.2 | 48 | - | SSE | 35 | 50 | 19 | 27 | 987.9 | 988.1 | - | |
| 08/07:27am | -21.4 | -32.6 | -28.8 | 51 | - | SSE | 39 | 50 | 21 | 27 | 987.6 | 987.8 | - | |
| 08/07:00am | -22.3 | -32.8 | -31.2 | 44 | - | SSW | 35 | 43 | 19 | 23 | 988.1 | 988.3 | - | |
| 08/06:30am | -22.7 | -33.2 | -30.4 | 49 | - | S | 35 | 41 | 19 | 22 | 988.6 | 988.8 | - | |
| 08/06:00am | -21.7 | -31.6 | -30.2 | 46 | - | S | 32 | 35 | 17 | 19 | 988.5 | 988.7 | - | |
| 08/05:30am | -22.4 | -33.3 | -30.4 | 48 | - | S | 37 | 43 | 20 | 23 | 988.5 | 988.7 | - | |
| 08/05:00am | -22.3 | -32.4 | -30.7 | 46 | - | SSE | 33 | 41 | 18 | 22 | 988.5 | 988.7 | - | |
| 08/04:30am | -21.0 | -30.2 | -30.5 | 42 | - | S | 28 | 35 | 15 | 19 | 988.5 | 988.7 | - | |
| 08/04:00am | -21.5 | -29.9 | -30.7 | 43 | - | SSE | 24 | 30 | 13 | 16 | 988.5 | 988.7 | - | |
| 08/03:30am | -23.0 | -30.6 | -30.9 | 48 | - | SE | 20 | 26 | 11 | 14 | 988.7 | 988.9 | - | |
| 08/03:00am | -23.1 | -30.7 | -30.6 | 50 | - | SSE | 20 | 28 | 11 | 15 | 988.6 | 988.8 | - | |
| 08/02:30am | -21.6 | -28.7 | -30.5 | 44 | - | SSE | 17 | 20 | 9 | 11 | 988.8 | 989.0 | - | |
| 08/02:00am | -22.4 | -30.0 | -30.4 | 48 | - | S | 20 | 26 | 11 | 14 | 988.7 | 988.9 | - | |
| 08/01:30am | -22.1 | -29.5 | -30.1 | 48 | - | S | 19 | 24 | 10 | 13 | 988.9 | 989.1 | - | |
| 08/01:00am | -22.7 | -31.1 | -30.4 | 49 | - | S | 24 | 30 | 13 | 16 | 988.9 | 989.1 | - | |
| 08/12:30am | -21.7 | -29.3 | -29.7 | 48 | - | S | 20 | 26 | 11 | 14 | 989.0 | 989.2 | - | |
| 08/12:00am | -21.5 | -28.2 | -30.0 | 46 | - | S | 15 | 19 | 8 | 10 | 989.2 | 989.4 | - | |
| Date/Time EST |
Temp °C |
App Temp °C |
Dew Point °C |
Rel Hum % |
Delta-T °C |
Wind | Press QNH hPa |
Press MSL hPa |
Rain since 9am mm |
|||||
|---|---|---|---|---|---|---|---|---|---|---|---|---|---|---|
| Dir | Spd km/h |
Gust km/h |
Spd kts |
Gust kts |
||||||||||
| 07/11:30pm | -20.4 | -25.9 | -29.7 | 43 | - | SW | 9 | 15 | 5 | 8 | 989.2 | 989.4 | - | |
| 07/11:00pm | -20.8 | -26.7 | -29.6 | 45 | - | SW | 11 | 15 | 6 | 8 | 989.5 | 989.7 | - | |
| 07/10:30pm | -20.9 | -27.2 | -29.2 | 47 | - | SSW | 13 | 22 | 7 | 12 | 989.6 | 989.8 | - | |
| 07/10:00pm | -21.0 | -26.2 | -29.7 | 45 | - | SW | 7 | 17 | 4 | 9 | 989.8 | 990.0 | - | |
| 07/09:30pm | -20.8 | -27.9 | -29.3 | 46 | - | S | 17 | 20 | 9 | 11 | 989.6 | 989.8 | - | |
| 07/09:00pm | -21.5 | -28.9 | -29.5 | 48 | - | S | 19 | 22 | 10 | 12 | 989.6 | 989.8 | - | |
| 07/08:30pm | -20.4 | -26.3 | -29.2 | 45 | - | SW | 11 | 17 | 6 | 9 | 989.6 | 989.8 | - | |
| 07/08:00pm | -20.9 | -27.2 | -29.0 | 48 | - | SW | 13 | 17 | 7 | 9 | 989.5 | 989.7 | - | |
| 07/07:30pm | -20.2 | -26.5 | -27.3 | 53 | - | WSW | 13 | 22 | 7 | 12 | 989.5 | 989.7 | - | |
| 07/07:00pm | -19.2 | -26.8 | -28.3 | 44 | - | SSE | 20 | 26 | 11 | 14 | 989.3 | 989.5 | - | |
| 07/06:30pm | -19.3 | -28.8 | -28.7 | 43 | - | SE | 30 | 37 | 16 | 20 | 989.2 | 989.4 | - | |
| 07/06:00pm | -19.5 | -30.7 | -28.6 | 44 | - | SSE | 39 | 44 | 21 | 24 | 989.3 | 989.5 | - | |
| 07/05:30pm | -19.0 | -28.9 | -29.4 | 39 | - | SE | 32 | 37 | 17 | 20 | 990.1 | 990.3 | - | |
| 07/05:00pm | -20.5 | -31.4 | -29.8 | 43 | - | SSE | 37 | 41 | 20 | 22 | 990.5 | 990.7 | - | |
| 07/04:30pm | -21.0 | -30.9 | -30.0 | 44 | - | SSE | 32 | 41 | 17 | 22 | 990.6 | 990.8 | - | |
| 07/04:00pm | -20.9 | -30.4 | -29.9 | 44 | - | S | 30 | 39 | 16 | 21 | 990.8 | 991.0 | - | |
| 07/03:56pm | -20.4 | -29.5 | -29.7 | 43 | - | S | 28 | 39 | 15 | 21 | 990.8 | 991.0 | - | |
| 07/03:30pm | -21.5 | -28.2 | -29.3 | 49 | - | SSE | 15 | 20 | 8 | 11 | 991.1 | 991.3 | - | |
| 07/03:00pm | -20.9 | -26.4 | -29.2 | 47 | - | W | 9 | 11 | 5 | 6 | 991.2 | 991.4 | - | |
| 07/02:30pm | -20.4 | -27.0 | -28.1 | 50 | - | N | 15 | 20 | 8 | 11 | 991.3 | 991.5 | - | |
| 07/02:00pm | -20.7 | -25.8 | -28.8 | 48 | - | WNW | 7 | 19 | 4 | 10 | 991.2 | 991.4 | - | |
| 07/01:30pm | -20.1 | -25.6 | -28.7 | 46 | - | WNW | 9 | 13 | 5 | 7 | 991.2 | 991.4 | - | |
| 07/01:00pm | -19.8 | -24.8 | -29.4 | 42 | - | N | 6 | 11 | 3 | 6 | 991.3 | 991.5 | - | |
| 07/12:30pm | -19.6 | -25.9 | -29.2 | 42 | - | E | 13 | 24 | 7 | 13 | 991.0 | 991.2 | - | |
| 07/12:00pm | -19.8 | -25.7 | -28.9 | 44 | - | SSE | 11 | 20 | 6 | 11 | 991.3 | 991.5 | - | |
| 07/11:30am | -19.9 | -26.2 | -28.5 | 46 | - | SW | 13 | 19 | 7 | 10 | 991.6 | 991.8 | - | |
| 07/11:00am | -19.5 | -25.0 | -29.1 | 42 | - | S | 9 | 15 | 5 | 8 | 991.7 | 991.9 | - | |
| 07/10:30am | -19.6 | -26.6 | -28.5 | 45 | - | SSE | 17 | 24 | 9 | 13 | 991.9 | 992.1 | - | |
| 07/10:00am | -18.7 | -25.7 | -28.6 | 41 | - | SSE | 17 | 35 | 9 | 19 | 991.7 | 991.9 | - | |
| 07/09:32am | -19.2 | -29.7 | -28.3 | 44 | - | S | 35 | 54 | 19 | 29 | 991.6 | 991.8 | - | |
| 07/09:30am | -18.9 | -29.7 | -28.1 | 44 | - | S | 37 | 54 | 20 | 29 | 991.3 | 991.5 | - | |
| 07/09:19am | -18.4 | -31.7 | -28.4 | 41 | - | S | 50 | 61 | 27 | 33 | 991.0 | 991.2 | - | |
| 07/09:00am | -18.8 | -30.4 | -27.3 | 47 | - | SSE | 41 | 57 | 22 | 31 | 991.2 | 991.4 | - | |
| 07/08:57am | -18.7 | -29.9 | -27.6 | 45 | - | SSE | 39 | 52 | 21 | 28 | 991.2 | 991.4 | - | |
| 07/08:31am | -18.7 | -29.2 | -28.4 | 42 | - | S | 35 | 54 | 19 | 29 | 991.1 | 991.3 | - | |
| 07/08:30am | -18.2 | -28.6 | -27.7 | 43 | - | SSW | 35 | 52 | 19 | 28 | 991.1 | 991.3 | - | |
| 07/08:21am | -17.3 | -25.3 | -28.4 | 37 | - | SSW | 22 | 44 | 12 | 24 | 990.8 | 991.0 | - | |
| 07/08:14am | -17.9 | -28.3 | -26.7 | 46 | - | SE | 35 | 54 | 19 | 29 | 990.9 | 991.1 | - | |
| 07/08:00am | -18.9 | -29.7 | -27.8 | 45 | - | SE | 37 | 57 | 20 | 31 | 991.0 | 991.2 | - | |
| 07/07:30am | -17.3 | -24.7 | -29.0 | 35 | - | SSE | 19 | 35 | 10 | 19 | 990.9 | 991.1 | - | |
| 07/07:00am | -19.2 | -24.1 | -27.9 | 46 | - | SW | 6 | 13 | 3 | 7 | 991.2 | 991.4 | - | |
| 07/06:30am | -18.4 | -26.4 | -27.4 | 45 | - | SW | 22 | 35 | 12 | 19 | 991.1 | 991.3 | - | |
| 07/06:25am | -18.6 | -28.1 | -27.3 | 46 | - | SSW | 30 | 50 | 16 | 27 | 991.2 | 991.4 | - | |
| 07/06:00am | -20.0 | -32.9 | -27.3 | 52 | - | S | 48 | 57 | 26 | 31 | 991.0 | 991.2 | - | |
| 07/05:46am | -20.3 | -31.1 | -27.4 | 53 | - | SSE | 37 | 59 | 20 | 32 | 991.3 | 991.5 | - | |
| 07/05:30am | -20.3 | -32.8 | -26.8 | 56 | - | SSE | 46 | 56 | 25 | 30 | 991.1 | 991.3 | - | |
| 07/05:00am | -19.6 | -31.2 | -27.1 | 51 | - | SSE | 41 | 48 | 22 | 26 | 991.1 | 991.3 | - | |
| 07/04:30am | -20.2 | -31.8 | -27.9 | 50 | - | SSE | 41 | 54 | 22 | 29 | 991.2 | 991.4 | - | |
| 07/04:20am | -19.3 | -30.1 | -27.7 | 47 | - | S | 37 | 46 | 20 | 25 | 991.3 | 991.5 | - | |
| 07/04:00am | -17.9 | -29.9 | -27.4 | 43 | - | S | 43 | 54 | 23 | 29 | 991.3 | 991.5 | - | |
| 07/03:50am | -18.6 | -30.5 | -26.6 | 49 | - | SSE | 43 | 52 | 23 | 28 | 991.2 | 991.4 | - | |
| 07/03:30am | -18.9 | -30.1 | -26.7 | 50 | - | SE | 39 | 54 | 21 | 29 | 991.2 | 991.4 | - | |
| 07/03:00am | -19.8 | -31.0 | -26.7 | 54 | - | SSE | 39 | 52 | 21 | 28 | 991.4 | 991.6 | - | |
| 07/02:30am | -19.7 | -30.5 | -27.2 | 51 | - | SE | 37 | 46 | 20 | 25 | 991.5 | 991.7 | - | |
| 07/02:00am | -19.7 | -33.0 | -26.4 | 55 | - | SSE | 50 | 61 | 27 | 33 | 991.4 | 991.6 | - | |
| 07/01:33am | -19.0 | -29.0 | -27.0 | 49 | - | SSE | 33 | 52 | 18 | 28 | 991.6 | 991.8 | - | |
| 07/01:30am | -18.2 | -28.0 | -26.5 | 48 | - | SSE | 32 | 46 | 17 | 25 | 991.9 | 992.1 | - | |
| 07/01:00am | -17.2 | -25.9 | -26.3 | 45 | - | SSE | 26 | 39 | 14 | 21 | 992.0 | 992.2 | - | |
| 07/12:30am | -18.6 | -32.2 | -26.0 | 52 | - | SE | 52 | 59 | 28 | 32 | 991.9 | 992.1 | - | |
| 07/12:12am | -18.9 | -29.7 | -25.8 | 54 | - | SSE | 37 | 57 | 20 | 31 | 992.1 | 992.3 | - | |
| 07/12:00am | -18.8 | -30.0 | -27.3 | 47 | - | SE | 39 | 52 | 21 | 28 | 992.5 | 992.7 | - | |
| Date/Time EST |
Temp °C |
App Temp °C |
Dew Point °C |
Rel Hum % |
Delta-T °C |
Wind | Press QNH hPa |
Press MSL hPa |
Rain since 9am mm |
||||
|---|---|---|---|---|---|---|---|---|---|---|---|---|---|
| Dir | Spd km/h |
Gust km/h |
Spd kts |
Gust kts |
|||||||||
| 06/11:59pm | -18.4 | -29.6 | -27.1 | 46 | - | SE | 39 | 52 | 21 | 28 | 992.5 | 992.7 | - |
| 06/11:51pm | -17.2 | -28.7 | -26.0 | 46 | - | SE | 41 | 52 | 22 | 28 | 992.5 | 992.7 | - |
| 06/11:30pm | -18.6 | -30.5 | -25.4 | 55 | - | SSE | 43 | 56 | 23 | 30 | 992.3 | 992.5 | - |
| 06/11:00pm | -18.5 | -31.4 | -25.1 | 56 | - | S | 48 | 57 | 26 | 31 | 992.2 | 992.4 | - |
| 06/10:30pm | -18.6 | -32.2 | -24.6 | 59 | - | S | 52 | 65 | 28 | 35 | 992.1 | 992.3 | - |
| 06/10:00pm | -18.6 | -32.2 | -24.8 | 58 | - | S | 52 | 61 | 28 | 33 | 992.3 | 992.5 | - |
Other formats
Comma delimited format used in spreadsheet applications
http://www.bom.gov.au/fwo/IDT60803/IDT60803.89564.axf
JavaScript Object Notation format (JSON) in row-major order
http://www.bom.gov.au/fwo/IDT60803/IDT60803.89564.json
Data quality
Most of these data are generated automatically and are frequently updated. Quality checks on data are not normally performed. It is possible for incorrect values to appear. Refer to information at About Latest Weather Observations and please check the disclaimer before using these data.
